,,PA_Meas_PMT16A,,PR_Meas_QMR101_102,,RH_Meas_QMH101,,SR_Meas_QMS101,,TA_Meas_QMH101,,GenWind,,GenWind,
time,status,PA,status,PR,status,RH,status,SR,status,TA,status,DirAvg,status,SpdAvg,
2011-10-28, 00:00:04,VALID,916.979,VALID,0,VALID,95.2546,VALID,0,VALID,20.3659,VALID,173,VALID,1.84805,
2011-10-28, 00:01:04,VALID,916.943,VALID,0,VALID,95.0411,VALID,0,VALID,20.3643,VALID,156,VALID,1.88242,
2011-10-28, 00:02:04,VALID,916.945,VALID,0,VALID,94.8353,VALID,0,VALID,20.4228,VALID,142,VALID,1.23242,
2011-10-28, 00:03:04,VALID,916.927,VALID,0,VALID,94.4999,VALID,0,VALID,20.4829,VALID,134,VALID,1.00469,
2011-10-28, 00:04:04,VALID,916.93,VALID,0,VALID,94.3245,VALID,0,VALID,20.4813,VALID,148,VALID,1.00781,
2011-10-28, 00:05:04,VALID,916.938,VALID,0,VALID,94.233,VALID,0,VALID,20.5024,VALID,145,VALID,0.753906,
2011-10-28, 00:06:04,VALID,916.931,VALID,0,VALID,94.1797,VALID,0,VALID,20.5024,VALID,120,VALID,1.40391,
2011-10-28, 00:07:04,VALID,916.952,VALID,0,VALID,93.8214,VALID,0,VALID,20.5024,VALID,138,VALID,1.87852,
2011-10-28, 00:08:04,VALID,916.951,VALID,0,VALID,93.2877,VALID,0,VALID,20.5999,VALID,127,VALID,1.32266,
2011-10-28, 00:09:04,VALID,916.945,VALID,0,VALID,92.8761,VALID,0,VALID,20.6374,VALID,132,VALID,0.996094,
2011-10-28, 00:10:04,VALID,916.939,VALID,0,VALID,92.8227,VALID,0,VALID,20.6179,VALID,134,VALID,0.984766,
2011-10-28, 00:11:04,VALID,916.957,VALID,0,VALID,92.8761,VALID,0,VALID,20.6179,VALID,134,VALID,1.27617,
2011-10-28, 00:12:04,VALID,916.925,VALID,0,VALID,93.0362,VALID,0,VALID,20.5984,VALID,134,VALID,0.641016,
2011-10-28, 00:13:04,VALID,916.914,VALID,0,VALID,93.1658,VALID,0,VALID,20.5789,VALID,134,VALID,1.15586,
2011-10-28, 00:14:04,VALID,916.894,VALID,0,VALID,93.2115,VALID,0,VALID,20.5399,VALID,134,VALID,1.21875,
2011-10-28, 00:15:04,VALID,916.906,VALID,0,VALID,93.3564,VALID,0,VALID,20.5399,VALID,134,VALID,0.602344,
2011-10-28, 00:16:04,VALID,916.876,VALID,0,VALID,93.4631,VALID,0,VALID,20.5204,VALID,134,VALID,0.716406,
2011-10-28, 00:17:04,VALID,916.878,VALID,0,VALID,93.5164,VALID,0,VALID,20.5219,VALID,134,VALID,0.895703,
2011-10-28, 00:18:04,VALID,916.903,VALID,0,VALID,93.6079,VALID,0,VALID,20.5009,VALID,134,VALID,0.594922,
2011-10-28, 00:19:04,VALID,916.866,VALID,0,VALID,93.6613,VALID,0,VALID,20.5204,VALID,134,VALID,0.391016,
2011-10-28, 00:20:04,VALID,916.902,VALID,0,VALID,93.6537,VALID,0.107441,VALID,20.5009,VALID,134,VALID,0.444531,
2011-10-28, 00:21:04,VALID,916.875,VALID,0,VALID,93.768,VALID,0,VALID,20.5009,VALID,134,VALID,0.315625,
2011-10-28, 00:22:04,VALID,916.839,VALID,0,VALID,93.8824,VALID,0,VALID,20.5009,VALID,134,VALID,0.429297,
2011-10-28, 00:23:04,VALID,916.832,VALID,0,VALID,93.9815,VALID,0,VALID,20.5204,VALID,134,VALID,0.174219,
2011-10-28, 00:24:04,VALID,916.845,VALID,0,VALID,94.1644,VALID,0,VALID,20.5204,VALID,134,VALID,0.7125,
2011-10-28, 00:25:04,VALID,916.848,VALID,0,VALID,94.3931,VALID,0,VALID,20.5009,VALID,134,VALID,0.492578,
2011-10-28, 00:26:04,VALID,916.823,VALID,0,VALID,94.5532,VALID,0,VALID,20.5024,VALID,134,VALID,0.572656,
2011-10-28, 00:27:04,VALID,916.818,VALID,0,VALID,94.8353,VALID,0,VALID,20.4813,VALID,145,VALID,0.70625,
2011-10-28, 00:28:04,VALID,916.797,VALID,0,VALID,95.0716,VALID,0,VALID,20.4423,VALID,190,VALID,0.820703,
2011-10-28, 00:29:04,VALID,916.807,VALID,0,VALID,95.3003,VALID,0,VALID,20.4228,VALID,191,VALID,0.514844,
2011-10-28, 00:30:04,VALID,916.78,VALID,0,VALID,95.5138,VALID,0,VALID,20.4033,VALID,191,VALID,0.317969,
2011-10-28, 00:31:04,VALID,916.785,VALID,0,VALID,95.6739,VALID,0,VALID,20.3838,VALID,191,VALID,0.444141,
2011-10-28, 00:32:04,VALID,916.766,VALID,0,VALID,95.773,VALID,0,VALID,20.3643,VALID,191,VALID,0.520312,
2011-10-28, 00:33:04,VALID,916.762,VALID,0,VALID,95.9254,VALID,0,VALID,20.3643,VALID,191,VALID,0.329297,
2011-10-28, 00:34:04,VALID,916.702,VALID,0,VALID,96.0474,VALID,0,VALID,20.3643,VALID,191,VALID,0.0328125,
2011-10-28, 00:35:04,VALID,916.679,VALID,0,VALID,96.116,VALID,0,VALID,20.3643,VALID,191,VALID,0.420312,
2011-10-28, 00:36:04,VALID,916.649,VALID,0,VALID,96.1999,VALID,0,VALID,20.3643,VALID,191,VALID,0.289453,
2011-10-28, 00:37:04,VALID,916.618,VALID,0,VALID,96.2533,VALID,0,VALID,20.3448,VALID,191,VALID,0.359375,
2011-10-28, 00:38:04,VALID,916.587,VALID,0,VALID,96.2914,VALID,0,VALID,20.3253,VALID,191,VALID,0.405469,
2011-10-28, 00:39:04,VALID,916.572,VALID,0,VALID,96.36,VALID,0,VALID,20.3253,VALID,191,VALID,0.255859,
2011-10-28, 00:40:04,VALID,916.548,VALID,0,VALID,96.4286,VALID,0,VALID,20.3448,VALID,191,VALID,0,
2011-10-28, 00:41:04,VALID,916.553,VALID,0,VALID,96.4743,VALID,0,VALID,20.3253,VALID,191,VALID,0.00117188,
2011-10-28, 00:42:04,VALID,916.527,VALID,0,VALID,96.5277,VALID,0,VALID,20.3448,VALID,191,VALID,0,
2011-10-28, 00:43:04,VALID,916.522,VALID,0,VALID,96.5734,VALID,0,VALID,20.3643,VALID,191,VALID,0.178906,
2011-10-28, 00:44:04,VALID,916.499,VALID,0,VALID,96.5506,VALID,0,VALID,20.3659,VALID,191,VALID,0,
2011-10-28, 00:45:04,VALID,916.475,VALID,0,VALID,96.5963,VALID,0,VALID,20.3659,VALID,191,VALID,0,
2011-10-28, 00:46:04,VALID,916.464,VALID,0,VALID,96.5734,VALID,0,VALID,20.3269,VALID,191,VALID,0.563281,
2011-10-28, 00:47:04,VALID,916.443,VALID,0,VALID,96.5887,VALID,0,VALID,20.3253,VALID,191,VALID,0.424219,
2011-10-28, 00:48:04,VALID,916.429,VALID,0,VALID,96.5887,VALID,0,VALID,20.3058,VALID,190,VALID,0.310937,
2011-10-28, 00:49:04,VALID,916.383,VALID,0,VALID,96.5963,VALID,0,VALID,20.2863,VALID,191,VALID,0,
2011-10-28, 00:50:04,VALID,916.39,VALID,0,VALID,96.5963,VALID,0,VALID,20.2863,VALID,191,VALID,0.153906,
2011-10-28, 00:51:04,VALID,916.357,VALID,0,VALID,96.5963,VALID,0,VALID,20.2668,VALID,191,VALID,0.311328,
2011-10-28, 00:52:04,VALID,916.327,VALID,0,VALID,96.6192,VALID,0,VALID,20.2668,VALID,190,VALID,0.408594,
2011-10-28, 00:53:04,VALID,916.317,VALID,0,VALID,96.6039,VALID,0,VALID,20.2863,VALID,191,VALID,0.389062,
2011-10-28, 00:54:04,VALID,916.312,VALID,0,VALID,96.6039,VALID,0,VALID,20.3074,VALID,191,VALID,0.382422,
2011-10-28, 00:55:04,VALID,916.3,VALID,0,VALID,96.5429,VALID,0,VALID,20.2879,VALID,191,VALID,0,
2011-10-28, 00:56:04,VALID,916.254,VALID,0,VALID,96.4972,VALID,0,VALID,20.2863,VALID,190,VALID,0.261719,
2011-10-28, 00:57:04,VALID,916.232,VALID,0,VALID,96.4591,VALID,0,VALID,20.2879,VALID,191,VALID,0.382813,
2011-10-28, 00:58:04,VALID,916.274,VALID,0,VALID,96.3981,VALID,0,VALID,20.2863,VALID,191,VALID,0.634375,
2011-10-28, 00:59:04,VALID,916.214,VALID,0,VALID,96.4362,VALID,0,VALID,20.3253,VALID,191,VALID,0.157813,
2011-10-28, 01:00:04,VALID,916.192,VALID,0,VALID,96.4515,VALID,0,VALID,20.3659,VALID,191,VALID,0.410547,
2011-10-28, 01:01:04,VALID,916.175,VALID,0,VALID,96.4819,VALID,0,VALID,20.3643,VALID,191,VALID,0.492188,
2011-10-28, 01:02:04,VALID,916.184,VALID,0,VALID,96.5048,VALID,0,VALID,20.3448,VALID,190,VALID,0.913281,
2011-10-28, 01:03:04,VALID,916.145,VALID,0,VALID,96.4896,VALID,0,VALID,20.3253,VALID,191,VALID,0.480078,
2011-10-28, 01:04:04,VALID,916.114,VALID,0,VALID,96.5506,VALID,0,VALID,20.3253,VALID,191,VALID,0.391797,
2011-10-28, 01:05:04,VALID,916.117,VALID,0,VALID,96.5582,VALID,0,VALID,20.3253,VALID,191,VALID,0.122656,
2011-10-28, 01:06:04,VALID,916.082,VALID,0,VALID,96.6268,VALID,0,VALID,20.3448,VALID,191,VALID,0.0078125,
2011-10-28, 01:07:04,VALID,916.034,VALID,0,VALID,96.6344,VALID,0,VALID,20.3448,VALID,191,VALID,0,
2011-10-28, 01:08:04,VALID,916.008,VALID,0,VALID,96.6344,VALID,0,VALID,20.3253,VALID,191,VALID,0.321875,
2011-10-28, 01:09:04,VALID,915.996,VALID,0,VALID,96.6802,VALID,0,VALID,20.3448,VALID,191,VALID,0.277344,
2011-10-28, 01:10:04,VALID,915.989,VALID,0,VALID,96.7107,VALID,0,VALID,20.3643,VALID,191,VALID,0.205078,
2011-10-28, 01:11:04,VALID,915.951,VALID,0,VALID,96.6954,VALID,0,VALID,20.3659,VALID,191,VALID,0.297266,
2011-10-28, 01:12:04,VALID,915.921,VALID,0,VALID,96.6344,VALID,0,VALID,20.3058,VALID,191,VALID,0.667969,
2011-10-28, 01:13:04,VALID,915.883,VALID,0,VALID,96.6192,VALID,0,VALID,20.2863,VALID,191,VALID,0.350391,
2011-10-28, 01:14:04,VALID,915.892,VALID,0,VALID,96.6497,VALID,0,VALID,20.3058,VALID,191,VALID,0,
2011-10-28, 01:15:04,VALID,915.858,VALID,0,VALID,96.6573,VALID,0,VALID,20.3058,VALID,191,VALID,0,
2011-10-28, 01:16:04,VALID,915.842,VALID,0,VALID,96.6115,VALID,0,VALID,20.2863,VALID,191,VALID,0.126563,
2011-10-28, 01:17:04,VALID,915.837,VALID,0,VALID,96.6344,VALID,0,VALID,20.2863,VALID,191,VALID,0.271484,
2011-10-28, 01:18:04,VALID,915.835,VALID,0,VALID,96.5887,VALID,0,VALID,20.3074,VALID,191,VALID,0.286719,
2011-10-28, 01:19:04,VALID,915.791,VALID,0,VALID,96.5887,VALID,0,VALID,20.2863,VALID,191,VALID,0.196484,
2011-10-28, 01:20:04,VALID,915.782,VALID,0,VALID,96.5353,VALID,0,VALID,20.2668,VALID,191,VALID,0.358594,
2011-10-28, 01:21:04,VALID,915.78,VALID,0,VALID,96.4819,VALID,0,VALID,20.2278,VALID,191,VALID,0.607031,
2011-10-28, 01:22:04,VALID,915.791,VALID,0,VALID,96.5353,VALID,0,VALID,20.2278,VALID,191,VALID,0.225391,
2011-10-28, 01:23:04,VALID,915.767,VALID,0,VALID,96.5277,VALID,0,VALID,20.2473,VALID,191,VALID,0.267188,
2011-10-28, 01:24:04,VALID,915.768,VALID,0,VALID,96.4896,VALID,0,VALID,20.2684,VALID,191,VALID,0.381641,
2011-10-28, 01:25:04,VALID,915.745,VALID,0,VALID,96.4286,VALID,0,VALID,20.2278,VALID,191,VALID,0.503906,
2011-10-28, 01:26:04,VALID,915.741,VALID,0,VALID,96.4057,VALID,0,VALID,20.2278,VALID,191,VALID,0.628906,
2011-10-28, 01:27:04,VALID,915.728,VALID,0,VALID,96.36,VALID,0,VALID,20.2473,VALID,191,VALID,0.507813,
2011-10-28, 01:28:04,VALID,915.73,VALID,0,VALID,96.2837,VALID,0,VALID,20.2489,VALID,191,VALID,0.353906,
2011-10-28, 01:29:04,VALID,915.72,VALID,0,VALID,96.1999,VALID,0,VALID,20.2473,VALID,190,VALID,0.352734,
2011-10-28, 01:30:04,VALID,915.711,VALID,0,VALID,96.1465,VALID,0,VALID,20.2684,VALID,191,VALID,0.507813,
2011-10-28, 01:31:04,VALID,915.695,VALID,0,VALID,96.0627,VALID,0,VALID,20.2668,VALID,191,VALID,0.364844,
2011-10-28, 01:32:04,VALID,915.714,VALID,0,VALID,95.9407,VALID,0,VALID,20.2473,VALID,191,VALID,0.651563,
2011-10-28, 01:33:04,VALID,915.719,VALID,0,VALID,95.8568,VALID,0,VALID,20.2473,VALID,191,VALID,0.597656,
2011-10-28, 01:34:04,VALID,915.727,VALID,0,VALID,95.8187,VALID,0,VALID,20.2473,VALID,191,VALID,0.352344,
2011-10-28, 01:35:04,VALID,915.707,VALID,0,VALID,95.7882,VALID,0,VALID,20.2684,VALID,191,VALID,0.449609,
2011-10-28, 01:36:04,VALID,915.707,VALID,0,VALID,95.7577,VALID,0,VALID,20.2489,VALID,191,VALID,0.498437,
2011-10-28, 01:37:04,VALID,915.688,VALID,0,VALID,95.7501,VALID,0,VALID,20.2489,VALID,191,VALID,0.420703,
2011-10-28, 01:38:04,VALID,915.708,VALID,0,VALID,95.7425,VALID,0,VALID,20.2278,VALID,191,VALID,0.689453,
2011-10-28, 01:39:04,VALID,915.685,VALID,0,VALID,95.7044,VALID,0,VALID,20.2083,VALID,190,VALID,0.921875,
2011-10-28, 01:40:04,VALID,915.69,VALID,0,VALID,95.6586,VALID,0,VALID,20.2083,VALID,190,VALID,0.676953,
2011-10-28, 01:41:04,VALID,915.663,VALID,0,VALID,95.6281,VALID,0,VALID,20.1888,VALID,191,VALID,0.809766,
2011-10-28, 01:42:04,VALID,915.64,VALID,0,VALID,95.6129,VALID,0,VALID,20.1888,VALID,175,VALID,0.822656,
2011-10-28, 01:43:04,VALID,915.638,VALID,0,VALID,95.6434,VALID,0,VALID,20.1888,VALID,175,VALID,0.742578,
2011-10-28, 01:44:04,VALID,915.609,VALID,0,VALID,95.651,VALID,0,VALID,20.1888,VALID,175,VALID,0.503516,
2011-10-28, 01:45:04,VALID,915.641,VALID,0,VALID,95.651,VALID,0,VALID,20.1693,VALID,175,VALID,0.493359,
2011-10-28, 01:46:04,VALID,915.593,VALID,0,VALID,95.6434,VALID,0,VALID,20.1693,VALID,175,VALID,0.439844,
2011-10-28, 01:47:04,VALID,915.581,VALID,0,VALID,95.6815,VALID,0,VALID,20.1888,VALID,175,VALID,0.427734,
2011-10-28, 01:48:04,VALID,915.574,VALID,0,VALID,95.6586,VALID,0,VALID,20.2098,VALID,175,VALID,0.323828,
2011-10-28, 01:49:04,VALID,915.577,VALID,0,VALID,95.651,VALID,0,VALID,20.2098,VALID,175,VALID,0.570313,
2011-10-28, 01:50:04,VALID,915.576,VALID,0,VALID,95.6891,VALID,0,VALID,20.2098,VALID,175,VALID,0.378906,
2011-10-28, 01:51:04,VALID,915.592,VALID,0,VALID,95.6739,VALID,0,VALID,20.1888,VALID,175,VALID,0.857422,
2011-10-28, 01:52:04,VALID,915.587,VALID,0,VALID,95.6662,VALID,0,VALID,20.2098,VALID,175,VALID,0.753906,
2011-10-28, 01:53:04,VALID,915.586,VALID,0,VALID,95.6357,VALID,0,VALID,20.1888,VALID,175,VALID,0.803125,
2011-10-28, 01:54:04,VALID,915.571,VALID,0,VALID,95.6357,VALID,0,VALID,20.1903,VALID,175,VALID,0.767969,
2011-10-28, 01:55:04,VALID,915.582,VALID,0,VALID,95.712,VALID,0,VALID,20.1498,VALID,175,VALID,0.792578,
2011-10-28, 01:56:04,VALID,915.592,VALID,0,VALID,95.773,VALID,0,VALID,20.1498,VALID,175,VALID,0.873438,
2011-10-28, 01:57:04,VALID,915.616,VALID,0,VALID,95.7958,VALID,0,VALID,20.1498,VALID,175,VALID,0.708984,
2011-10-28, 01:58:04,VALID,915.611,VALID,0,VALID,95.834,VALID,0,VALID,20.1303,VALID,175,VALID,0.793359,
2011-10-28, 01:59:04,VALID,915.591,VALID,0,VALID,95.895,VALID,0,VALID,20.1498,VALID,169,VALID,0.620703,
2011-10-28, 02:00:04,VALID,915.591,VALID,0,VALID,95.9254,VALID,0,VALID,20.1108,VALID,155,VALID,0.425,
2011-10-28, 02:01:04,VALID,915.579,VALID,0,VALID,95.9864,VALID,0,VALID,20.1303,VALID,155,VALID,0.290234,
2011-10-28, 02:02:04,VALID,915.553,VALID,0,VALID,96.0322,VALID,0,VALID,20.1303,VALID,155,VALID,0.153125,
2011-10-28, 02:03:04,VALID,915.525,VALID,0,VALID,96.0703,VALID,0,VALID,20.1318,VALID,155,VALID,0.379297,
2011-10-28, 02:04:04,VALID,915.536,VALID,0,VALID,96.1008,VALID,0,VALID,20.1108,VALID,155,VALID,0.523047,
2011-10-28, 02:05:04,VALID,915.49,VALID,0,VALID,96.1541,VALID,0,VALID,20.1123,VALID,156,VALID,0.732422,
2011-10-28, 02:06:04,VALID,915.461,VALID,0,VALID,96.2075,VALID,0,VALID,20.0718,VALID,156,VALID,0.491797,
2011-10-28, 02:07:04,VALID,915.498,VALID,0,VALID,96.2609,VALID,0,VALID,20.0523,VALID,157,VALID,0.302344,
2011-10-28, 02:08:04,VALID,915.43,VALID,0,VALID,96.2914,VALID,0,VALID,20.0328,VALID,152,VALID,0.458203,
2011-10-28, 02:09:04,VALID,915.462,VALID,0,VALID,96.3447,VALID,0,VALID,20.0328,VALID,153,VALID,0.745313,
2011-10-28, 02:10:04,VALID,915.444,VALID,0,VALID,96.3676,VALID,0,VALID,20.0133,VALID,168,VALID,0.961719,
2011-10-28, 02:11:04,VALID,915.436,VALID,0,VALID,96.4286,VALID,0,VALID,20.0133,VALID,158,VALID,0.330859,
2011-10-28, 02:12:04,VALID,915.409,VALID,0,VALID,96.4362,VALID,0,VALID,19.9938,VALID,169,VALID,0.874609,
2011-10-28, 02:13:04,VALID,915.385,VALID,0,VALID,96.5201,VALID,0,VALID,19.9743,VALID,145,VALID,0.943359,
2011-10-28, 02:14:04,VALID,915.394,VALID,0,VALID,96.5353,VALID,0,VALID,19.9743,VALID,128,VALID,0.701563,
2011-10-28, 02:15:04,VALID,915.365,VALID,0,VALID,96.5353,VALID,0,VALID,19.9758,VALID,128,VALID,0.515234,
2011-10-28, 02:16:04,VALID,915.368,VALID,0,VALID,96.5734,VALID,0,VALID,19.9758,VALID,138,VALID,0.756641,
2011-10-28, 02:17:04,VALID,915.375,VALID,0,VALID,96.6192,VALID,0,VALID,19.9758,VALID,142,VALID,0.798828,
2011-10-28, 02:18:04,VALID,915.339,VALID,0,VALID,96.6725,VALID,0,VALID,19.9743,VALID,141,VALID,0.444141,
2011-10-28, 02:19:04,VALID,915.327,VALID,0,VALID,96.6649,VALID,0,VALID,19.9953,VALID,141,VALID,0.812891,
2011-10-28, 02:20:04,VALID,915.313,VALID,0,VALID,96.6725,VALID,0,VALID,19.9548,VALID,141,VALID,0.644531,
2011-10-28, 02:21:04,VALID,915.26,VALID,0,VALID,96.6573,VALID,0,VALID,19.9548,VALID,141,VALID,0.810156,
2011-10-28, 02:22:04,VALID,915.247,VALID,0,VALID,96.6344,VALID,0,VALID,19.9548,VALID,141,VALID,0.647656,
2011-10-28, 02:23:04,VALID,915.263,VALID,0,VALID,96.642,VALID,0,VALID,19.9743,VALID,141,VALID,0.285937,
2011-10-28, 02:24:04,VALID,915.254,VALID,0,VALID,96.6344,VALID,0,VALID,19.9743,VALID,141,VALID,0.182031,
2011-10-28, 02:25:04,VALID,915.254,VALID,0,VALID,96.6268,VALID,0,VALID,19.9743,VALID,141,VALID,0.348047,
2011-10-28, 02:26:04,VALID,915.23,VALID,0,VALID,96.5734,VALID,0,VALID,19.9743,VALID,140,VALID,0.716406,
2011-10-28, 02:27:04,VALID,915.205,VALID,0,VALID,96.5963,VALID,0,VALID,19.9938,VALID,140,VALID,0.339453,
2011-10-28, 02:28:04,VALID,915.2,VALID,0,VALID,96.5506,VALID,0,VALID,19.9938,VALID,141,VALID,0.283203,
2011-10-28, 02:29:04,VALID,915.185,VALID,0,VALID,96.5506,VALID,0,VALID,19.9953,VALID,140,VALID,0.55,
2011-10-28, 02:30:04,VALID,915.187,VALID,0,VALID,96.5506,VALID,0,VALID,19.9938,VALID,141,VALID,0.246484,
2011-10-28, 02:31:04,VALID,915.159,VALID,0,VALID,96.5277,VALID,0,VALID,19.9728,VALID,141,VALID,0.500781,
2011-10-28, 02:32:04,VALID,915.133,VALID,0,VALID,96.5353,VALID,0,VALID,19.9938,VALID,141,VALID,0.469531,
2011-10-28, 02:33:04,VALID,915.127,VALID,0,VALID,96.5124,VALID,0,VALID,19.9938,VALID,167,VALID,1.15,
2011-10-28, 02:34:04,VALID,915.128,VALID,0,VALID,96.5048,VALID,0,VALID,19.9938,VALID,164,VALID,0.455469,
2011-10-28, 02:35:04,VALID,915.075,VALID,0,VALID,96.5048,VALID,0,VALID,19.9938,VALID,141,VALID,0.233984,
2011-10-28, 02:36:04,VALID,915.072,VALID,0,VALID,96.4972,VALID,0,VALID,20.0148,VALID,150,VALID,0.704297,
2011-10-28, 02:37:04,VALID,915.059,VALID,0,VALID,96.5048,VALID,0,VALID,19.9938,VALID,158,VALID,1.05391,
2011-10-28, 02:38:04,VALID,915.061,VALID,0,VALID,96.5277,VALID,0,VALID,20.0148,VALID,160,VALID,0.263281,
2011-10-28, 02:39:04,VALID,915.053,VALID,0,VALID,96.4896,VALID,0,VALID,19.9938,VALID,160,VALID,0.544922,
2011-10-28, 02:40:04,VALID,915.007,VALID,0,VALID,96.4819,VALID,0,VALID,19.9938,VALID,129,VALID,0.261328,
2011-10-28, 02:41:04,VALID,915.012,VALID,0,VALID,96.4515,VALID,0,VALID,20.0148,VALID,149,VALID,0.902734,
2011-10-28, 02:42:04,VALID,914.983,VALID,0,VALID,96.4591,VALID,0.107441,VALID,20.0133,VALID,150,VALID,0.614844,
2011-10-28, 02:43:04,VALID,915.015,VALID,0,VALID,96.4896,VALID,0,VALID,20.0343,VALID,150,VALID,0.369922,
2011-10-28, 02:44:04,VALID,914.962,VALID,0,VALID,96.4667,VALID,0,VALID,20.0538,VALID,150,VALID,0.209766,
2011-10-28, 02:45:04,VALID,914.959,VALID,0,VALID,96.4743,VALID,0,VALID,20.0328,VALID,150,VALID,0.722266,
2011-10-28, 02:46:04,VALID,914.971,VALID,0,VALID,96.4438,VALID,0,VALID,20.0328,VALID,150,VALID,0.329688,
2011-10-28, 02:47:04,VALID,914.963,VALID,0,VALID,96.4057,VALID,0,VALID,20.0523,VALID,150,VALID,0.463281,
2011-10-28, 02:48:04,VALID,914.941,VALID,0,VALID,96.3829,VALID,0,VALID,20.0523,VALID,150,VALID,0.910547,
2011-10-28, 02:49:04,VALID,914.935,VALID,0,VALID,96.3295,VALID,0,VALID,20.0523,VALID,149,VALID,0.938281,
2011-10-28, 02:50:04,VALID,914.937,VALID,0,VALID,96.3219,VALID,0,VALID,20.0928,VALID,152,VALID,0.978125,
2011-10-28, 02:51:04,VALID,914.909,VALID,0,VALID,96.299,VALID,0,VALID,20.0523,VALID,152,VALID,0.608203,
2011-10-28, 02:52:04,VALID,914.929,VALID,0,VALID,96.2761,VALID,0,VALID,20.0733,VALID,152,VALID,0.941016,
2011-10-28, 02:53:04,VALID,914.918,VALID,0,VALID,96.2761,VALID,0,VALID,20.0538,VALID,137,VALID,0.750391,
2011-10-28, 02:54:04,VALID,914.931,VALID,0,VALID,96.238,VALID,0,VALID,20.0523,VALID,158,VALID,1.47266,
2011-10-28, 02:55:04,VALID,914.913,VALID,0,VALID,96.2761,VALID,0,VALID,20.0523,VALID,148,VALID,1.34375,
2011-10-28, 02:56:04,VALID,914.927,VALID,0,VALID,96.2685,VALID,0,VALID,20.0733,VALID,163,VALID,0.338281,
2011-10-28, 02:57:04,VALID,914.86,VALID,0,VALID,96.238,VALID,0,VALID,20.0523,VALID,146,VALID,1.11445,
2011-10-28, 02:58:04,VALID,914.893,VALID,0,VALID,96.2151,VALID,0,VALID,20.0538,VALID,164,VALID,1.31797,
2011-10-28, 02:59:04,VALID,914.893,VALID,0,VALID,96.2151,VALID,0,VALID,20.0523,VALID,160,VALID,0.948828,
2011-10-28, 03:00:04,VALID,914.881,VALID,0,VALID,96.2304,VALID,0,VALID,20.0538,VALID,170,VALID,1.29336,
2011-10-28, 03:01:04,VALID,914.858,VALID,0,VALID,96.2075,VALID,0,VALID,20.0538,VALID,134,VALID,0.494141,
2011-10-28, 03:02:04,VALID,914.886,VALID,0,VALID,96.1923,VALID,0,VALID,20.0328,VALID,169,VALID,1.00078,
2011-10-28, 03:03:04,VALID,914.872,VALID,0,VALID,96.1465,VALID,0,VALID,20.0538,VALID,171,VALID,1.12148,
2011-10-28, 03:04:04,VALID,914.869,VALID,0,VALID,96.1618,VALID,0,VALID,20.0328,VALID,172,VALID,1.03945,
2011-10-28, 03:05:04,VALID,914.84,VALID,0,VALID,96.1465,VALID,0,VALID,20.0343,VALID,180,VALID,0.992188,
2011-10-28, 03:06:04,VALID,914.842,VALID,0,VALID,96.1389,VALID,0,VALID,20.0343,VALID,165,VALID,1.79023,
2011-10-28, 03:07:04,VALID,914.847,VALID,0,VALID,96.116,VALID,0,VALID,20.0328,VALID,161,VALID,0.820313,
2011-10-28, 03:08:04,VALID,914.805,VALID,0,VALID,96.1084,VALID,0,VALID,20.0328,VALID,166,VALID,0.983594,
2011-10-28, 03:09:04,VALID,914.815,VALID,0,VALID,96.1236,VALID,0,VALID,20.0538,VALID,164,VALID,0.691797,
2011-10-28, 03:10:04,VALID,914.775,VALID,0,VALID,96.0932,VALID,0,VALID,20.0538,VALID,153,VALID,0.766797,
2011-10-28, 03:11:04,VALID,914.78,VALID,0,VALID,96.1008,VALID,0,VALID,20.0328,VALID,135,VALID,0.541016,
2011-10-28, 03:12:04,VALID,914.758,VALID,0,VALID,96.0627,VALID,0,VALID,20.0733,VALID,163,VALID,0.449219,
2011-10-28, 03:13:04,VALID,914.752,VALID,0,VALID,96.0169,VALID,0,VALID,20.0538,VALID,157,VALID,1.03711,
2011-10-28, 03:14:04,VALID,914.73,VALID,0,VALID,96.0322,VALID,0,VALID,20.0733,VALID,172,VALID,0.321875,
2011-10-28, 03:15:04,VALID,914.716,VALID,0,VALID,95.9941,VALID,0,VALID,20.0538,VALID,123,VALID,0.878125,
2011-10-28, 03:16:04,VALID,914.696,VALID,0,VALID,95.9331,VALID,0,VALID,20.0928,VALID,167,VALID,0.285937,
2011-10-28, 03:17:04,VALID,914.702,VALID,0,VALID,95.8721,VALID,0,VALID,20.1123,VALID,158,VALID,0.884375,
2011-10-28, 03:18:04,VALID,914.674,VALID,0,VALID,95.7958,VALID,0,VALID,20.0913,VALID,159,VALID,1.07383,
2011-10-28, 03:19:04,VALID,914.655,VALID,0,VALID,95.7349,VALID,0,VALID,20.0913,VALID,159,VALID,0.375391,
2011-10-28, 03:20:04,VALID,914.65,VALID,0,VALID,95.6891,VALID,0,VALID,20.1123,VALID,159,VALID,0.625391,
2011-10-28, 03:21:04,VALID,914.641,VALID,0,VALID,95.6205,VALID,0,VALID,20.1123,VALID,159,VALID,0.720703,
2011-10-28, 03:22:04,VALID,914.634,VALID,0,VALID,95.5976,VALID,0,VALID,20.1123,VALID,159,VALID,0.578516,
2011-10-28, 03:23:04,VALID,914.611,VALID,0,VALID,95.5367,VALID,0,VALID,20.1123,VALID,157,VALID,0.935156,
2011-10-28, 03:24:04,VALID,914.575,VALID,0,VALID,95.5138,VALID,0,VALID,20.0718,VALID,153,VALID,0.714063,
2011-10-28, 03:25:04,VALID,914.567,VALID,0,VALID,95.4909,VALID,0,VALID,20.0718,VALID,144,VALID,0.730469,
2011-10-28, 03:26:04,VALID,914.576,VALID,0,VALID,95.4604,VALID,0,VALID,20.0928,VALID,118,VALID,0.836328,
2011-10-28, 03:27:04,VALID,914.578,VALID,0,VALID,95.4757,VALID,0,VALID,20.0928,VALID,152,VALID,0.871875,
2011-10-28, 03:28:04,VALID,914.532,VALID,0,VALID,95.4375,VALID,0,VALID,20.0718,VALID,116,VALID,0.689062,
2011-10-28, 03:29:04,VALID,914.53,VALID,0,VALID,95.4528,VALID,0,VALID,20.0718,VALID,155,VALID,0.6625,
2011-10-28, 03:30:04,VALID,914.527,VALID,0,VALID,95.4375,VALID,0,VALID,20.0928,VALID,151,VALID,0.467187,
2011-10-28, 03:31:04,VALID,914.529,VALID,0,VALID,95.4223,VALID,0,VALID,20.0733,VALID,154,VALID,0.66875,
2011-10-28, 03:32:04,VALID,914.492,VALID,0,VALID,95.4223,VALID,0,VALID,20.0733,VALID,151,VALID,0.764063,
2011-10-28, 03:33:04,VALID,914.477,VALID,0,VALID,95.4223,VALID,0,VALID,20.0328,VALID,148,VALID,0.74375,
2011-10-28, 03:34:04,VALID,914.467,VALID,0,VALID,95.4375,VALID,0,VALID,20.0538,VALID,132,VALID,0.296484,
2011-10-28, 03:35:04,VALID,914.462,VALID,0,VALID,95.4223,VALID,0,VALID,20.0343,VALID,114,VALID,0.967969,
2011-10-28, 03:36:04,VALID,914.461,VALID,0,VALID,95.4223,VALID,0,VALID,20.0328,VALID,131,VALID,0.815234,
2011-10-28, 03:37:04,VALID,914.451,VALID,0,VALID,95.3994,VALID,0,VALID,20.0538,VALID,144,VALID,0.439063,
2011-10-28, 03:38:04,VALID,914.406,VALID,0,VALID,95.3537,VALID,0,VALID,20.0343,VALID,146,VALID,1.36641,
2011-10-28, 03:39:04,VALID,914.417,VALID,0,VALID,95.2927,VALID,0,VALID,20.0538,VALID,148,VALID,0.427344,
2011-10-28, 03:40:04,VALID,914.413,VALID,0,VALID,95.247,VALID,0,VALID,20.0538,VALID,134,VALID,0.976172,
2011-10-28, 03:41:04,VALID,914.378,VALID,0,VALID,95.1555,VALID,0,VALID,20.0538,VALID,124,VALID,0.966797,
2011-10-28, 03:42:04,VALID,914.394,VALID,0,VALID,95.0411,VALID,0,VALID,20.0538,VALID,112,VALID,0.789453,
2011-10-28, 03:43:04,VALID,914.378,VALID,0,VALID,94.9573,VALID,0,VALID,20.0538,VALID,172,VALID,1.48477,
2011-10-28, 03:44:04,VALID,914.393,VALID,0,VALID,94.8887,VALID,0,VALID,20.0733,VALID,165,VALID,0.327344,